Address 0xaf856ef1bec9748d66183f389c2695e6c1bdbb96 10

 
 
Txn Hash Method
Block
From
To
Value [Txn Fee]
0xd9d8df465339445a3af78b1532d769d55e579fdd746a216cc1a6e6ff8fea72ecSwap Exact Token...237360282022-01-15 5:11:229 days 2 hrs ago0xaf856ef1bec9748d66183f389c2695e6c1bdbb96OUT SushiSwap: SushiV2Router020 MATIC0.0054939330
0xe022072474ceb79a91fe0f72a06f66f9a8c14f7ad1b742255ca2cc8521f651ebApprove237360132022-01-15 5:10:229 days 2 hrs ago0xaf856ef1bec9748d66183f389c2695e6c1bdbb96OUT VESQ: VSQ Token0 MATIC0.001397730
0x6d3f6c0f4c8a434c0b914b4a58af3b173234f9c16b623299dc1dbb4eb5381e5eSafe Transfer Fr...229363612021-12-25 7:04:0830 days 7 mins ago0xaf856ef1bec9748d66183f389c2695e6c1bdbb96OUT 0x576763fdf5aabee12c0587612d714813b6e3a1ec0 MATIC0.0024592830
0xdd2d431aa08a5b0298a481307e121de88edfaf2baeba04a3dfebb6ad351f07f4Transfer229361982021-12-25 6:58:3430 days 13 mins ago0x0d236a7e38eb459da563068a07ef33171a0ae677 IN 0xaf856ef1bec9748d66183f389c2695e6c1bdbb961 MATIC0.0000559022.662
0xceec8788f06ecfa4273b68304740f6efe3975cd580ea882e0c2cee6a29450fc9Transfer217155082021-11-23 18:01:3061 days 13 hrs ago0xaf856ef1bec9748d66183f389c2695e6c1bdbb96OUT0x0d236a7e38eb459da563068a07ef33171a0ae6771.001346058959925 MATIC0.0006330
0x7fe423f6793c3024e156336e673b46363c65d8df351abcbcf92e1eaffc83037aSafe Transfer Fr...217030832021-11-23 9:41:5861 days 21 hrs ago0xaf856ef1bec9748d66183f389c2695e6c1bdbb96OUT 0xdf745373a44ca024d2dbdc3f66a7f16c07fc948b0 MATIC0.0021068130
0xa45f570fa1fa6c4febc62ed55deb416188044e138e02e9d6e6fd5834cabde605Safe Transfer Fr...217030002021-11-23 9:39:0861 days 21 hrs ago0xaf856ef1bec9748d66183f389c2695e6c1bdbb96OUT 0xdf745373a44ca024d2dbdc3f66a7f16c07fc948b0 MATIC0.0021071730
0x5f2f34c2e0f64a7ed1af61ffad14410c8ed8642f9947fbdc2890f6dcf0245849Transfer217029862021-11-23 9:38:4061 days 21 hrs ago0x0d236a7e38eb459da563068a07ef33171a0ae677 IN 0xaf856ef1bec9748d66183f389c2695e6c1bdbb961 MATIC0.0006330
0x00bd1cbecda08ecf970aed556733cf8c922ec895a8fba79bf3eeba4cb6ffa641Transfer217016582021-11-23 8:50:4761 days 22 hrs ago0xaf856ef1bec9748d66183f389c2695e6c1bdbb96OUT Maker: Dai Stablecoin0 MATIC0.0012696630
0xc501e9dd25ce73ee42abb5f66f134d2e6ee9c698a6010355a9d8cb2eea489319Transfer217016342021-11-23 8:49:5961 days 22 hrs ago0xaf856ef1bec9748d66183f389c2695e6c1bdbb96OUT0x0d236a7e38eb459da563068a07ef33171a0ae67719.75 MATIC0.0006330
0x2c2e002ca216921b9836c07389110f8145483faee7250ce384f99ce5d2ab7bb0Transfer217016262021-11-23 8:49:3961 days 22 hrs ago0xaf856ef1bec9748d66183f389c2695e6c1bdbb96OUT 0x04568467f0aae5fb85bf0e031ee66ff2c200a6fb0 MATIC0.0016196430
0x2647b2e2083f35362b5447ce4b27c4d761c81f7bb443f702c74343e6ec508602Transfer217016212021-11-23 8:49:2961 days 22 hrs ago0xaf856ef1bec9748d66183f389c2695e6c1bdbb96OUT Maker: Dai Stablecoin0 MATIC0.0016750830
0xae9150b10135f4a5874983b2e5dbab58fd3b3d7d45441988ee05443396db9a21Swap Exact Token...216972602021-11-23 6:02:1262 days 1 hr ago0xaf856ef1bec9748d66183f389c2695e6c1bdbb96OUT SushiSwap: SushiV2Router020 MATIC0.00299103531
0xa274c2a105fc4f5f346fd7c63fedf601a7ebed9904a5f014f942022fc72e2d12Unstake216972462021-11-23 6:01:1662 days 1 hr ago0xaf856ef1bec9748d66183f389c2695e6c1bdbb96OUT Nidhi Dao: Staking0 MATIC0.0025558230
0x14b40004d0daf8ef43ed08c324a1f7540351521ed80a5be90e713e88ea1653dcApprove216971832021-11-23 5:58:0462 days 1 hr ago0xaf856ef1bec9748d66183f389c2695e6c1bdbb96OUT 0x04568467f0aae5fb85bf0e031ee66ff2c200a6fb0 MATIC0.001384230
0xb95ed3972a037f272274a46dee2595912a2975bcf7e9a1e151561e46e10f33b8Approve216937792021-11-23 3:12:1262 days 3 hrs ago0xaf856ef1bec9748d66183f389c2695e6c1bdbb96OUT Maker: Dai Stablecoin0 MATIC0.0015621630
0xbf7629335deaaaf9f310cd2595b61318b35264f7b6963abf4cf347d3cb5170d3Stake216930302021-11-23 2:35:0662 days 4 hrs ago0xaf856ef1bec9748d66183f389c2695e6c1bdbb96OUT 0x14d9e4bcc1791aef83170c6876629f7e60c9ba1c0 MATIC0.00129259911
0xa2c17c3ddd29f2355aec8d39dad494b0713984a8d81286b6d9dfd2203a8114c3Swap Exact Token...216930042021-11-23 2:34:1462 days 4 hrs ago0xaf856ef1bec9748d66183f389c2695e6c1bdbb96OUT SushiSwap: SushiV2Router020 MATIC0.0033441930
0x0fc44556b2803661a2adda8604718e45528506a513a8825d72388c889e09ee64Approve216929972021-11-23 2:34:0062 days 4 hrs ago0xaf856ef1bec9748d66183f389c2695e6c1bdbb96OUT 0x057e0bd9b797f9eeeb8307b35dbc8c12e534c41e0 MATIC0.0013970430
0xeb951ed3925574a551a546b7c46d3b9473f7406d57003a37c6435bc325aca082Migrate216929852021-11-23 2:33:3262 days 4 hrs ago0xaf856ef1bec9748d66183f389c2695e6c1bdbb96OUT 0xe8a1a9f57be31c329ca06651752b21fe631b87bc0 MATIC0.0028049730
0x18d8fefb49936891bbbb9394615482ad39625e8160f2b43ca22d8135a028e999Approve216925692021-11-23 2:15:0062 days 4 hrs ago0xaf856ef1bec9748d66183f389c2695e6c1bdbb96OUT 0x7c9b16d845fe163f464d265193cc2b4ee3fac3260 MATIC0.0025397955
0x5891dccf38d3473cb52f7c7c4e9c0e98a24e676362393703174c2fa60df01ea7Approve216925692021-11-23 2:15:0062 days 4 hrs ago0xaf856ef1bec9748d66183f389c2695e6c1bdbb96OUT 0xbc4f91bb7c9fb8b2d5ac7ff7e7f7278ecbbf3f2f0 MATIC0.00152644833
0x49f99a2e9856854d2a6f8d983218aae509a83b7442fb0ee60a839ba5f601e136Approve216916742021-11-23 1:31:3962 days 5 hrs ago0xaf856ef1bec9748d66183f389c2695e6c1bdbb96OUT 0xbc4f91bb7c9fb8b2d5ac7ff7e7f7278ecbbf3f2f0 MATIC0.0013876830
0xe313c217982515e4b18cffd51c997fc650da2e56348d3e138862c44eb4daeaf7Approve216898172021-11-23 0:23:3362 days 6 hrs ago0xaf856ef1bec9748d66183f389c2695e6c1bdbb96OUT Maker: Dai Stablecoin0 MATIC0.0015538830
0x664b337a49b871b693a5123c7b24dd0b7e9e0c0d7abb5e0f1e8e38f8b60f6585Swap ETH For Exa...216897082021-11-23 0:19:4762 days 6 hrs ago0xaf856ef1bec9748d66183f389c2695e6c1bdbb96OUT SushiSwap: SushiV2Router0225.980680042201023 MATIC0.0060958530
[ Download CSV Export 
Latest 5 internal transactions
Parent Txn Hash Block From To Value
0x664b337a49b871b693a5123c7b24dd0b7e9e0c0d7abb5e0f1e8e38f8b60f6585216897082021-11-23 0:19:4762 days 6 hrs ago SushiSwap: SushiV2Router020xaf856ef1bec9748d66183f389c2695e6c1bdbb960.1289430495634298 MATIC
0x6e9b37df502ea01bc12ef8c88f05cb708282475c075dfdf105b6ba42ed379db6215361472021-11-19 1:42:4166 days 5 hrs ago QuickSwap: Router0xaf856ef1bec9748d66183f389c2695e6c1bdbb96135.531055598433243791 MATIC
0xdaeb923bba9bc9091b93cbe4557e54f21bc234ffecb52bd5aff90ecb2bd3defc215361282021-11-19 1:42:0366 days 5 hrs ago 0xa889df7bbf4f2ad689ecb4dd172c6f0b9065d2e90xaf856ef1bec9748d66183f389c2695e6c1bdbb960.01 MATIC
0x13e37659407efbe0deebdb27b50ce22bfd2b4888f196e853182ce86dd5bdc411215360662021-11-19 1:39:5566 days 5 hrs ago 0xa889df7bbf4f2ad689ecb4dd172c6f0b9065d2e90xaf856ef1bec9748d66183f389c2695e6c1bdbb960.01 MATIC
0x38d5dd6896c4bd632b18917a4eb1d5eedbcb8d3c29c2e7e9ea76784824fa7530214970202021-11-18 1:04:5667 days 6 hrs ago QuickSwap: Router0xaf856ef1bec9748d66183f389c2695e6c1bdbb9660.011034845164275963 MATIC
[ Download CSV Export 
Loading

Contract Name:
0 MATIC

Compiler Version
0

Optimization Enabled:
0 MATIC

Other Settings:
-NA-
Block Transaction Gas Used Reward
Age Block Fee Address BC Fee Address Voting Power Jailed Incoming
Block Uncle Number Difficulty Gas Used Reward
Loading
Loading
Make sure to use the "Vote Down" button for any spammy posts, and the "Vote Up" for interesting conversations.